This is the latest recevied weather packets stored in our database for station/object SQ5JP-4. If no packets are shown the sender has not sent any weather packets the latest 10 day(s).
| Time | Temp. | Humidity | Pressure | Rain* | Wind** | Luminosity | Snow |
|---|---|---|---|---|---|---|---|
| 1777524284 | -1.11° C | 100% | 1011.9 hPa | - | - | - | - |
| 1777523384 | -1.67° C | 100% | 1011.6 hPa | - | - | - | - |
| 1777522484 | -2.22° C | 100% | 1011.4 hPa | - | - | - | - |
| 1777521584 | -3.33° C | 100% | 1011.5 hPa | - | - | - | - |
| 1777520684 | -3.33° C | 100% | 1011.4 hPa | - | - | - | - |
| 1777519784 | -4.44° C | 100% | 1011.4 hPa | - | - | - | - |
| 1777518884 | -4.44° C | 100% | 1011.3 hPa | - | - | - | - |
| 1777517984 | -4.44° C | 100% | 1011.2 hPa | - | - | - | - |
| 1777517084 | -4.44° C | 100% | 1011.1 hPa | - | - | - | - |
| 1777516183 | -4.44° C | 100% | 1011.1 hPa | - | - | - | - |
| 1777514387 | -4.44° C | 100% | 1011.2 hPa | - | - | - | - |
| 1777513487 | -3.89° C | 100% | 1011.2 hPa | - | - | - | - |
| 1777512587 | -3.89° C | 100% | 1011.2 hPa | - | - | - | - |
| 1777511687 | -3.89° C | 100% | 1011.3 hPa | - | - | - | - |
| 1777510787 | -3.33° C | 100% | 1011.3 hPa | - | - | - | - |
| 1777509887 | -3.33° C | 100% | 1011.2 hPa | - | - | - | - |
| 1777508986 | -3.33° C | 100% | 1011.1 hPa | - | - | - | - |
| 1777508086 | -2.78° C | 100% | 1011.4 hPa | - | - | - | - |
| 1777507186 | -2.78° C | 100% | 1011.3 hPa | - | - | - | - |
| 1777506286 | -2.78° C | 100% | 1011.3 hPa | - | - | - | - |
| 1777505386 | -2.22° C | 100% | 1011.4 hPa | - | - | - | - |
| 1777504486 | -2.22° C | 100% | 1011.5 hPa | - | - | - | - |
| 1777503586 | -2.22° C | 100% | 1011.4 hPa | - | - | - | - |
| 1777502686 | -1.67° C | 100% | 1011.4 hPa | - | - | - | - |
| 1777501786 | -1.11° C | 100% | 1011.3 hPa | - | - | - | - |
* Rain since midnight (hover to see other rain measurements)
** Current wind speed in m/s (hover to see current wind gust speed)